Вернуться в каталог

SL-14 DEB

АктивенPO
NORAD 45296·DEBRIS·🇷🇺 Russia

Запущен Aug 15, 1991 с Plesetsk Cosmodrome

Loading…

Ближайшие Пролёты (ближайшие 24 часа)

TLE

СвежийSource: Space-Track

Эпоха: Sep 14, 2026, 13:18 UTC

1 45296U 91056AJ  26257.55465906  .00003457  00000-0  28467-2 0  9997
2 45296  82.6343 307.9038 0192035  22.9432 338.0161 13.80797598326613

Отслеживайте SL-14 DEB в реальном времени с AllMySat

Download on the App Store